Weather History for Poplar Bluff, MO

Change the Weather History Date:

Tuesday, January 8, 2013

  Actual Average Record
Temperature  
Mean Temperature 40 °F -  
Max Temperature 54 °F 39 °F 69 °F (1939)
Min Temperature 25 °F 20 °F -20 °F (1942)
Degree Days  
Heating Degree Days 26    
Moisture  
Dew Point 32 °F    
Average Humidity 75    
Maximum Humidity 89    
Minimum Humidity 51    
Precipitation  
Precipitation 0.00 in - - ()
Sea Level Pressure  
Sea Level Pressure 30.22 in    
Wind  
Wind Speed 1 mph (SSE)    
Max Wind Speed 9 mph    
Max Gust Speed -    
Visibility 8 miles    
Events Rain    
Averages and records for this station are not official NWS values.
T = Trace of Precipitation, MM = Missing Value Source: NWS Daily Summary

Daily Weather History Graph

Daily Weather History Graph

Search for Another Location

Airport:

Trip Planner

Search our weather history database for the weather conditions in past years. The results will help you decide how hot, cold, wet, or windy it might be!

Date:

Astronomy

Jan. 08, 2013 Rise Set
Actual Time 7:14 AM CST 5:02 PM CST
Civil Twilight 6:45 AM CST 5:30 PM CST
Nautical Twilight 6:13 AM CST 6:02 PM CST
Astronomical Twilight 5:42 AM CST 6:34 PM CST
Moon 3:47 AM CST (1/8) 2:04 PM CST (1/8)
Length of Visible Light 10h 45m
Length of Day
9h 47m
Waning Crescent, 13% of the Moon is Illuminated
Jan 8
Waning Crescent
Jan 11
New
Jan 18
First Quarter
Jan 26
Full
Feb 3
Last Quarter

Hourly Weather History & Observations

Time (CST) Temp. Windchill Dew Point Humidity Pressure Visibility Wind Dir Wind Speed Gust Speed Precip Events Conditions
12:53 AM 27.0 °F - 23.0 °F 85% 30.24 in 6.0 mi Calm Calm - N/A   Clear
1:53 AM 27.0 °F - 24.1 °F 89% 30.22 in 6.0 mi Calm Calm - N/A   Clear
2:53 AM 26.1 °F - 23.0 °F 88% 30.22 in 6.0 mi Calm Calm - N/A   Clear
3:53 AM 25.0 °F - 21.9 °F 88% 30.21 in 4.0 mi Calm Calm - N/A   Clear
4:53 AM 26.1 °F - 21.9 °F 84% 30.22 in 5.0 mi Calm Calm - N/A   Clear
6:53 AM 27.0 °F - 23.0 °F 85% 30.25 in 5.0 mi Calm Calm - N/A   Clear
7:53 AM 26.1 °F - 21.9 °F 84% 30.27 in 4.0 mi Calm Calm - N/A   Clear
8:53 AM 32.0 °F - 27.0 °F 82% 30.28 in 3.0 mi Calm Calm - N/A   Haze
9:04 AM 33.8 °F - 28.4 °F 81% 30.26 in 2.5 mi Calm Calm - N/A   Haze
9:14 AM 35.6 °F - 28.4 °F 75% 30.26 in 3.0 mi Calm Calm - N/A   Haze
9:53 AM 37.9 °F - 30.9 °F 76% 30.27 in 5.0 mi Calm Calm - N/A   Haze
10:53 AM 43.0 °F 40.3 °F 32.0 °F 65% 30.26 in 9.0 mi SE 4.6 mph - N/A   Clear
11:53 AM 48.0 °F - 32.0 °F 54% 30.23 in 10.0 mi South 5.8 mph - N/A   Clear
12:53 PM 51.1 °F - 34.0 °F 52% 30.19 in 10.0 mi South 5.8 mph - N/A   Overcast
1:53 PM 53.1 °F - 36.0 °F 52% 30.17 in 10.0 mi South 5.8 mph - N/A   Clear
2:53 PM 54.0 °F - 36.0 °F 51% 30.18 in 10.0 mi South 9.2 mph - N/A   Clear
3:53 PM 52.0 °F - 37.9 °F 59% 30.17 in 10.0 mi SE 5.8 mph - N/A   Clear
4:53 PM 50.0 °F - 37.9 °F 63% 30.20 in 10.0 mi South 5.8 mph - N/A   Clear
5:53 PM 46.9 °F - 37.9 °F 71% 30.19 in 10.0 mi SE 4.6 mph - N/A   Clear
6:53 PM 44.1 °F - 37.0 °F 76% 30.18 in 10.0 mi Calm Calm - N/A   Scattered Clouds
7:53 PM 44.1 °F - 37.9 °F 79% 30.20 in 10.0 mi Calm Calm - N/A   Overcast
8:53 PM 44.1 °F 42.5 °F 39.0 °F 82% 30.20 in 10.0 mi North 3.5 mph - N/A   Overcast
9:53 PM 44.1 °F - 39.0 °F 82% 30.20 in 10.0 mi Calm Calm - N/A   Overcast
10:53 PM 45.0 °F - 39.9 °F 82% 30.21 in 10.0 mi Calm Calm - 0.00 in Rain Light Rain
11:53 PM 45.0 °F - 39.9 °F 82% 30.22 in 10.0 mi Calm Calm - 0.00 in   Overcast